W5HKR Weather Reports


time (UTC)temp
C
wind
direction
speed
KPH
gust
KPH
rain 1hr
cm
rain 24hr
cm
rain mn
cm
humidity
%
barometer
mb
20260507010356 18 271 14.5 16.1 0.00 0.00 0.00 91 990.6
20260507010325 19 266 12.9 16.1 0.00 0.00 0.00 77 983.2
20260507005822 19 272 12.9 19.3 0.00 0.00 0.00 77 983.0
20260507005322 18 268 14.5 19.3 0.00 0.00 0.00 91 990.6
20260507004824 20 271 12.9 20.9 0.00 0.00 0.00 76 982.7
20260507004554 18 272 12.9 20.9 0.00 0.00 0.00 91 990.6
20260507004323 20 268 14.5 19.3 0.00 0.00 0.00 76 983.0
20260507003824 18 269 12.9 16.1 0.00 0.00 0.00 91 990.6
20260507002754 18 263 12.9 19.3 0.00 0.00 0.00 91 990.6
20260507002324 20 272 12.9 19.3 0.00 0.00 0.00 75 983.4
20260507001824 20 275 16.1 19.3 0.00 0.00 0.00 75 983.0
20260507001322 21 262 11.3 19.3 0.00 0.00 0.00 74 982.7
20260507000955 18 263 16.1 20.9 0.00 0.00 0.00 91 990.6
20260507000823 21 272 12.9 19.3 0.00 0.00 0.00 73 982.7
20260507000324 18 271 16.1 20.9 0.00 0.00 0.00 91 990.6
20260506235824 18 272 16.1 19.3 0.00 0.00 0.00 91 990.6
20260506235325 18 276 16.1 20.9 0.00 0.00 0.00 91 990.6
20260506235155 18 274 16.1 20.9 0.00 0.00 0.00 91 990.6
20260506234323 22 256 16.1 19.3 0.00 0.00 0.00 71 982.7
20260506233824 18 269 16.1 20.9 0.00 0.00 0.00 91 990.6
20260506233355 18 277 16.1 20.9 0.00 0.00 0.00 91 990.6
20260506233325 18 275 16.1 20.9 0.00 0.00 0.00 91 990.6
20260506232824 18 269 16.1 19.3 0.00 0.00 0.00 91 990.6
20260506232324 18 273 16.1 20.9 0.00 0.00 0.00 91 990.6
20260506231823 23 266 16.1 20.9 0.00 0.00 0.00 70 982.2
20260506231554 23 269 14.5 20.9 0.00 0.00 0.00 69 982.1
20260506231324 23 271 16.1 19.3 0.00 0.00 0.00 69 982.1
20260506230823 18 272 14.5 22.5 0.00 0.00 0.00 91 990.6
20260506225754 25 271 11.3 20.9 0.00 0.00 0.00 68 982.0
20260506225324 25 272 19.3 22.5 0.00 0.00 0.00 69 981.6
20260506224824 18 266 14.5 22.5 0.00 0.00 0.00 91 990.6
20260506224323 18 267 19.3 20.9 0.00 0.00 0.00 91 990.6
20260506223955 18 268 14.5 24.1 0.00 0.00 0.00 91 990.6
20260506223824 25 278 16.1 24.1 0.00 0.00 0.00 68 981.7
20260506223324 26 265 19.3 20.9 0.00 0.00 0.00 69 981.4
20260506222824 18 275 19.3 20.9 0.00 0.00 0.00 91 990.6
20260506222324 26 266 19.3 20.9 0.00 0.00 0.00 69 980.8
20260506222153 26 268 16.1 20.9 0.00 0.00 0.00 69 981.3
20260506221823 26 268 12.9 20.9 0.00 0.00 0.00 68 981.2
20260506221323 26 265 16.1 24.1 0.00 0.00 0.00 68 981.2
20260506220823 27 268 20.9 24.1 0.00 0.00 0.00 69 981.1
20260506220355 27 268 16.1 22.5 0.00 0.00 0.00 69 981.1
20260506220324 27 269 16.1 22.5 0.00 0.00 0.00 69 981.2
20260506215824 18 272 19.3 20.9 0.00 0.00 0.00 91 990.6
20260506215323 18 263 14.5 24.1 0.00 0.00 0.00 91 990.6
20260506214824 18 266 16.1 22.5 0.00 0.00 0.00 91 990.6
20260506214554 18 267 16.1 20.9 0.00 0.00 0.00 91 990.6
20260506214324 18 273 20.9 24.1 0.00 0.00 0.00 91 990.6
20260506213825 18 270 19.3 22.5 0.00 0.00 0.00 91 990.6
20260506213323 18 261 14.5 22.5 0.00 0.00 0.00 91 990.6
20260506212754 27 268 19.3 24.1 0.00 0.00 0.00 71 981.0
20260506212324 27 270 16.1 20.9 0.00 0.00 0.00 71 981.0
20260506211823 18 265 19.3 20.9 0.00 0.00 0.00 91 990.6
20260506211324 18 274 16.1 22.5 0.00 0.00 0.00 91 990.6
20260506210955 18 270 19.3 24.1 0.00 0.00 0.00 91 990.6
20260506210825 18 268 19.3 24.1 0.00 0.00 0.00 91 990.6
20260506210325 29 266 22.5 22.5 0.00 0.00 0.00 69 981.4
20260506205823 29 270 20.9 22.5 0.00 0.00 0.00 67 981.1
20260506205323 29 263 20.9 22.5 0.00 0.00 0.00 69 980.8
20260506205155 18 272 16.1 20.9 0.00 0.00 0.00 91 990.6
20260506204823 29 277 20.9 22.5 0.00 0.00 0.00 68 981.4
20260506204323 18 269 20.9 22.5 0.00 0.00 0.00 91 990.6
20260506203823 30 273 20.9 22.5 0.00 0.00 0.00 69 981.4
20260506203355 30 268 20.9 22.5 0.00 0.00 0.00 67 981.0
20260506203324 30 269 20.9 22.5 0.00 0.00 0.00 67 981.0
20260506202824 18 271 19.3 22.5 0.00 0.00 0.00 91 990.6
20260506202325 30 272 20.9 22.5 0.00 0.00 0.00 64 981.2
20260506201823 31 269 22.5 24.1 0.00 0.00 0.00 66 981.7
20260506201554 18 269 22.5 24.1 0.00 0.00 0.00 91 990.6
20260506200824 18 267 22.5 24.1 0.00 0.00 0.00 91 990.6
20260506200324 30 269 24.1 25.7 0.00 0.00 0.00 62 981.4
20260506195825 18 265 22.5 24.1 0.00 0.00 0.00 91 990.6
20260506195754 18 265 22.5 24.1 0.00 0.00 0.00 91 990.6
20260506195323 18 266 22.5 24.1 0.00 0.00 0.00 91 990.6
20260506194825 18 273 22.5 24.1 0.00 0.00 0.00 91 990.6
20260506194325 30 261 22.5 24.1 0.00 0.00 0.00 64 981.4
20260506193954 18 267 20.9 24.1 0.00 0.00 0.00 91 990.6
20260506193824 30 273 20.9 24.1 0.00 0.00 0.00 65 981.6
20260506193324 18 266 20.9 24.1 0.00 0.00 0.00 91 990.6
20260506192824 30 268 20.9 22.5 0.00 0.00 0.00 67 982.0
20260506192325 18 269 22.5 25.7 0.00 0.00 0.00 91 990.6
20260506192154 18 267 22.5 33.8 0.00 0.00 0.00 91 990.6
20260506191823 29 267 22.5 27.4 0.00 0.00 0.00 69 981.6
20260506191325 29 268 22.5 35.4 0.00 0.00 0.00 68 982.0
20260506190355 18 270 19.3 24.1 0.00 0.00 0.00 91 990.6
20260506190325 30 267 20.9 25.7 0.00 0.00 0.00 69 981.7
20260506185823 30 269 25.7 27.4 0.00 0.00 0.00 69 981.7
20260506185323 30 260 22.5 25.7 0.00 0.00 0.00 69 981.8
20260506184825 30 268 22.5 24.1 0.00 0.00 0.00 71 981.7
20260506184555 18 268 22.5 22.5 0.00 0.00 0.00 91 990.6
20260506184325 30 268 20.9 24.1 0.00 0.00 0.00 71 982.1
20260506183824 30 264 22.5 25.7 0.00 0.00 0.00 73 982.3
20260506183324 29 270 20.9 24.1 0.00 0.00 0.00 72 981.7
20260506182755 18 266 20.9 25.7 0.00 0.00 0.00 91 990.6
20260506182325 18 275 19.3 25.7 0.00 0.00 0.00 91 990.6
20260506181823 28 270 19.3 22.5 0.00 0.00 0.00 74 982.2
20260506181324 18 269 20.9 24.1 0.00 0.00 0.00 91 990.6
20260506180955 28 267 20.9 22.5 0.00 0.00 0.00 74 982.7
20260506180825 28 272 20.9 20.9 0.00 0.00 0.00 74 982.4
20260506180323 28 271 19.3 22.5 0.00 0.00 0.00 75 982.2
20260506175826 27 271 19.3 22.5 0.00 0.00 0.00 77 982.4
20260506175324 18 271 19.3 24.1 0.00 0.00 0.00 91 990.6
20260506175155 18 262 19.3 24.1 0.00 0.00 0.00 91 990.6
20260506174825 18 265 19.3 22.5 0.00 0.00 0.00 91 990.6
20260506174323 18 269 20.9 24.1 0.00 0.00 0.00 91 990.6
20260506173825 27 263 19.3 22.5 0.00 0.00 0.00 79 982.4
20260506173354 27 271 19.3 22.5 0.00 0.00 0.00 78 982.4
20260506173323 27 271 19.3 20.9 0.00 0.00 0.00 79 982.6
20260506172824 18 271 19.3 20.9 0.00 0.00 0.00 91 990.6
20260506172325 27 274 16.1 20.9 0.00 0.00 0.00 79 983.0
20260506171823 18 270 19.3 22.5 0.00 0.00 0.00 91 990.6
20260506171554 27 265 19.3 22.5 0.00 0.00 0.00 80 982.7
20260506171324 18 269 19.3 22.5 0.00 0.00 0.00 91 990.6
20260506170824 26 272 16.1 20.9 0.00 0.00 0.00 81 983.0
20260506170323 26 273 19.3 20.9 0.00 0.00 0.00 81 982.7
20260506165754 26 269 19.3 20.9 0.00 0.00 0.00 83 982.3
20260506165324 18 269 20.9 22.5 0.00 0.00 0.00 91 990.6
20260506164825 18 269 19.3 20.9 0.00 0.00 0.00 91 990.6
20260506164325 26 270 16.1 20.9 0.00 0.00 0.00 83 982.7
20260506163955 26 269 16.1 20.9 0.00 0.00 0.00 84 982.7
20260506163825 26 268 19.3 20.9 0.00 0.00 0.00 85 982.5
20260506163325 18 267 16.1 20.9 0.00 0.00 0.00 91 990.6
20260506162824 25 266 14.5 22.5 0.00 0.00 0.00 84 983.1
20260506162325 25 271 14.5 22.5 0.00 0.00 0.00 85 982.9
20260506162155 25 273 14.5 22.5 0.00 0.00 0.00 85 982.7
20260506161825 25 273 19.3 19.3 0.00 0.00 0.00 86 982.8
20260506161325 18 269 16.1 20.9 0.00 0.00 0.00 91 990.6
20260506160825 18 267 16.1 20.9 0.00 0.00 0.00 91 990.6
20260506160354 18 269 16.1 20.9 0.00 0.00 0.00 91 990.6
20260506160325 18 271 16.1 20.9 0.00 0.00 0.00 91 990.6
20260506155825 18 272 16.1 19.3 0.00 0.00 0.00 91 990.6
20260506155325 25 267 16.1 20.9 0.00 0.00 0.00 89 982.5
20260506154824 25 269 19.3 19.3 0.00 0.00 0.00 89 982.5
20260506154555 18 269 16.1 19.3 0.00 0.00 0.00 91 990.6
20260506154325 25 271 16.1 19.3 0.00 0.00 0.00 88 982.4
20260506153825 18 269 16.1 19.3 0.00 0.00 0.00 91 990.6
20260506153325 18 269 16.1 20.9 0.00 0.00 0.00 91 990.6
20260506152755 18 271 19.3 19.3 0.00 0.00 0.00 91 990.6
20260506152324 18 269 16.1 19.3 0.00 0.00 0.00 91 990.6
20260506151824 18 270 16.1 19.3 0.00 0.00 0.00 91 990.6
20260506151324 24 271 16.1 19.3 0.00 0.00 0.00 89 981.8
20260506150955 24 269 16.1 19.3 0.00 0.00 0.00 89 981.7
20260506150824 18 268 16.1 19.3 0.00 0.00 0.00 91 990.6
20260506150325 18 266 16.1 19.3 0.00 0.00 0.00 91 990.6
20260506145824 24 271 16.1 19.3 0.00 0.00 0.00 89 982.0
20260506145324 18 271 19.3 19.3 0.00 0.00 0.00 91 990.6
20260506145155 24 269 16.1 19.3 0.00 0.00 0.00 90 982.0
20260506144823 24 270 16.1 19.3 0.00 0.00 0.00 90 981.7
20260506144325 18 269 16.1 19.3 0.00 0.00 0.00 91 990.6
20260506143824 24 272 16.1 19.3 0.00 0.00 0.00 90 982.0
20260506143355 23 269 16.1 19.3 0.00 0.00 0.00 90 981.9
20260506143324 23 269 14.5 19.3 0.00 0.00 0.00 90 982.1
20260506142325 24 267 16.1 19.3 0.00 0.00 0.00 89 981.4
20260506141823 24 269 16.1 19.3 0.00 0.00 0.00 90 981.4
20260506141556 24 268 16.1 19.3 0.00 0.00 0.00 90 981.2
20260506141324 24 270 19.3 20.9 0.00 0.00 0.00 90 981.6
20260506140824 24 269 16.1 19.3 0.00 0.00 0.00 90 981.3
20260506140324 18 265 16.1 19.3 0.00 0.00 0.00 91 990.6
20260506135754 23 267 16.1 20.9 0.00 0.00 0.00 91 980.7
20260506135323 23 267 16.1 19.3 0.00 0.00 0.00 91 980.7
20260506134824 23 272 19.3 19.3 0.00 0.00 0.00 91 980.7
20260506134324 18 269 16.1 19.3 0.00 0.00 0.00 91 990.6
20260506133955 18 267 16.1 19.3 0.00 0.00 0.00 91 990.6
20260506133824 23 271 16.1 20.9 0.00 0.00 0.00 91 980.7
20260506132154 23 269 19.3 19.3 0.00 0.00 0.00 91 980.7
20260506131825 23 264 16.1 19.3 0.00 0.00 0.00 91 980.7
20260506131324 18 265 16.1 19.3 0.00 0.00 0.00 91 990.6
20260506130825 18 271 19.3 20.9 0.00 0.00 0.00 91 990.6
20260506130355 18 268 16.1 19.3 0.00 0.00 0.00 91 990.6
20260506130325 23 269 14.5 19.3 0.00 0.00 0.00 92 980.6
20260506125824 23 267 16.1 19.3 0.00 0.00 0.00 92 980.4
20260506125324 18 274 16.1 19.3 0.00 0.00 0.00 91 990.6
20260506124823 23 265 16.1 19.3 0.00 0.00 0.00 92 981.0
20260506124555 23 273 14.5 19.3 0.00 0.00 0.00 92 980.4
20260506124324 18 264 16.1 19.3 0.00 0.00 0.00 91 990.6
20260506123824 23 267 16.1 19.3 0.00 0.00 0.00 92 980.6
20260506123323 18 266 14.5 19.3 0.00 0.00 0.00 91 990.6
20260506122825 18 263 16.1 19.3 0.00 0.00 0.00 91 990.6
20260506122754 18 263 16.1 19.3 0.00 0.00 0.00 91 990.6
20260506122325 18 270 16.1 20.9 0.00 0.00 0.00 91 990.6
20260506121824 18 269 16.1 19.3 0.00 0.00 0.00 91 990.6
20260506121324 18 271 16.1 19.3 0.00 0.00 0.00 91 990.6
20260506120954 23 267 16.1 19.3 0.00 0.00 0.00 92 980.4
20260506120323 18 268 16.1 19.3 0.00 0.00 0.00 91 990.6
20260506115824 23 267 16.1 19.3 0.00 0.00 0.00 92 980.6
20260506115324 18 271 16.1 19.3 0.00 0.00 0.00 91 990.6
20260506115155 18 272 16.1 19.3 0.00 0.00 0.00 91 990.6
20260506114824 23 270 16.1 20.9 0.00 0.00 0.00 92 980.0
20260506114326 23 269 16.1 19.3 0.00 0.00 0.00 91 980.0
20260506113825 23 267 16.1 19.3 0.00 0.00 0.00 91 980.4
20260506113356 18 269 16.1 19.3 0.00 0.00 0.00 91 990.6
20260506113325 23 271 16.1 19.3 0.00 0.00 0.00 91 980.4
20260506112824 18 264 16.1 19.3 0.00 0.00 0.00 91 990.6
20260506112325 23 269 16.1 19.3 0.00 0.00 0.00 91 980.2
20260506111824 18 269 16.1 19.3 0.00 0.00 0.00 91 990.6
20260506111554 18 269 16.1 19.3 0.00 0.00 0.00 91 990.6
20260506111326 18 271 16.1 19.3 0.00 0.00 0.00 91 990.6
20260506110824 23 268 16.1 19.3 0.00 0.00 0.00 91 980.0
20260506110324 23 269 16.1 19.3 0.00 0.00 0.00 91 979.9
20260506105756 18 269 16.1 19.3 0.00 0.00 0.00 91 990.6
20260506105325 23 269 16.1 19.3 0.00 0.00 0.00 91 980.0
20260506104824 18 269 16.1 19.3 0.00 0.00 0.00 91 990.6
20260506104325 18 267 16.1 19.3 0.00 0.00 0.00 91 990.6
20260506103955 23 267 16.1 19.3 0.00 0.00 0.00 90 980.0
20260506103824 23 269 16.1 19.3 0.00 0.00 0.00 90 979.7
20260506103324 23 269 16.1 19.3 0.00 0.00 0.00 90 980.0
20260506102825 18 267 16.1 19.3 0.00 0.00 0.00 91 990.6
20260506102324 23 269 16.1 19.3 0.00 0.00 0.00 90 980.0
20260506102155 23 271 16.1 19.3 0.00 0.00 0.00 90 979.8
20260506101825 18 270 16.1 19.3 0.00 0.00 0.00 91 990.6
20260506101324 23 269 16.1 19.3 0.00 0.00 0.00 90 980.0
20260506100825 23 268 16.1 20.9 0.00 0.00 0.00 90 979.7
20260506100355 23 268 16.1 19.3 0.00 0.00 0.00 90 979.8
20260506100324 23 268 16.1 20.9 0.00 0.00 0.00 90 979.7
20260506095824 23 271 16.1 22.5 0.00 0.00 0.00 90 980.0
20260506095325 23 272 16.1 19.3 0.00 0.00 0.00 90 980.0
20260506094824 23 271 20.9 22.5 0.00 0.00 0.00 90 979.7
20260506094555 18 266 19.3 22.5 0.00 0.00 0.00 91 990.6
20260506094326 23 272 16.1 20.9 0.00 0.00 0.00 90 979.7
20260506093325 18 271 19.3 22.5 0.00 0.00 0.00 91 990.6
20260506092755 18 268 16.1 19.3 0.00 0.00 0.00 91 990.6
20260506092324 18 266 16.1 19.3 0.00 0.00 0.00 91 990.6
20260506091824 23 269 16.1 20.9 0.00 0.00 0.00 89 980.0
20260506091324 23 274 19.3 20.9 0.00 0.00 0.00 89 980.0
20260506090956 18 269 16.1 19.3 0.00 0.00 0.00 91 990.6
20260506090824 18 269 14.5 20.9 0.00 0.00 0.00 91 990.6
20260506090324 18 269 16.1 22.5 0.00 0.00 0.00 91 990.6
20260506085824 23 268 16.1 20.9 0.00 0.00 0.00 89 979.7
20260506085325 23 269 16.1 20.9 0.00 0.00 0.00 89 979.7
20260506085156 23 271 19.3 19.3 0.00 0.00 0.00 89 979.7
20260506084325 18 268 19.3 20.9 0.00 0.00 0.00 91 990.6
20260506083825 18 269 16.1 20.9 0.00 0.00 0.00 91 990.6
20260506083356 18 268 19.3 20.9 0.00 0.00 0.00 91 990.6
20260506083324 18 266 19.3 20.9 0.00 0.00 0.00 91 990.6
20260506082824 24 272 16.1 20.9 0.00 0.00 0.00 89 979.8
20260506082326 18 269 19.3 20.9 0.00 0.00 0.00 91 990.6
20260506081825 24 267 19.3 20.9 0.00 0.00 0.00 88 979.4
20260506081555 18 266 19.3 20.9 0.00 0.00 0.00 91 990.6
20260506081326 18 267 19.3 20.9 0.00 0.00 0.00 91 990.6
20260506080324 24 268 19.3 20.9 0.00 0.00 0.00 88 979.7
20260506073324 24 268 16.1 19.3 0.00 0.00 0.00 88 980.3
20260506072324 24 269 19.3 20.9 0.00 0.00 0.00 88 980.2
20260506072155 18 269 19.3 19.3 0.00 0.00 0.00 91 990.6
20260506071825 18 267 19.3 20.9 0.00 0.00 0.00 91 990.6
20260506071325 24 265 19.3 20.9 0.00 0.00 0.00 88 980.7
20260506070824 18 266 14.5 22.5 0.00 0.00 0.00 91 990.6
20260506070355 24 270 16.1 20.9 0.00 0.00 0.00 88 980.6
20260506070325 24 268 14.5 20.9 0.00 0.00 0.00 88 980.6
20260506062325 24 269 20.9 24.1 0.00 0.00 0.00 88 980.0
20260506061825 18 271 19.3 25.7 0.00 0.00 0.00 91 990.6
20260506061325 24 271 19.3 22.5 0.00 0.00 0.00 88 980.4
20260506060956 24 268 19.3 22.5 0.00 0.00 0.00 88 980.3
20260506060324 24 274 19.3 27.4 0.00 0.00 0.00 88 980.7
20260506051325 24 267 16.1 24.1 0.00 0.00 0.00 88 980.7
20260506050325 18 265 16.1 24.1 0.00 0.00 0.00 91 990.6
20260506044825 18 263 14.5 20.9 0.00 0.00 0.00 91 990.6
20260506044325 18 265 19.3 24.1 0.00 0.00 0.00 91 990.6
20260506043956 24 273 19.3 20.9 0.00 0.00 0.00 88 980.6
20260506043826 24 271 16.1 20.9 0.00 0.00 0.00 88 980.7
20260506043325 24 271 16.1 20.9 0.00 0.00 0.00 88 980.4
20260506042826 24 269 16.1 20.9 0.00 0.00 0.00 88 980.2
20260506042324 24 268 20.9 22.5 0.00 0.00 0.00 88 980.5
20260506042157 18 271 19.3 20.9 0.00 0.00 0.00 91 990.6
20260506041826 18 265 16.1 22.5 0.00 0.00 0.00 91 990.6
20260506041326 24 274 16.1 20.9 0.00 0.00 0.00 89 980.3
20260506040357 18 269 16.1 20.9 0.00 0.00 0.00 91 990.6
20260506040325 18 269 19.3 20.9 0.00 0.00 0.00 91 990.6
20260506035826 24 272 16.1 20.9 0.00 0.00 0.00 88 979.7
20260506034557 24 268 19.3 20.9 0.00 0.00 0.00 88 980.0
20260506034325 18 271 19.3 22.5 0.00 0.00 0.00 91 990.6
20260506033827 25 268 19.3 20.9 0.00 0.00 0.00 87 979.5
20260506033327 18 265 16.1 20.9 0.00 0.00 0.00 91 990.6
20260506032825 25 262 16.1 22.5 0.00 0.00 0.00 87 979.3
20260506032755 18 263 16.1 22.5 0.00 0.00 0.00 91 990.6
20260506032325 25 267 16.1 24.1 0.00 0.00 0.00 86 979.7
20260506031825 25 270 20.9 22.5 0.00 0.00 0.00 86 979.3
20260506031324 18 264 19.3 24.1 0.00 0.00 0.00 91 990.6
20260506030957 25 280 22.5 22.5 0.00 0.00 0.00 85 979.9
20260506030825 25 272 20.9 22.5 0.00 0.00 0.00 85 979.6
20260506030325 18 271 19.3 24.1 0.00 0.00 0.00 91 990.6
20260506025824 18 268 16.1 25.7 0.00 0.00 0.00 91 990.6
20260506025156 25 271 19.3 22.5 0.00 0.00 0.00 84 978.7
20260506024326 18 272 22.5 25.7 0.00 0.00 0.00 91 990.6
20260506023825 18 267 19.3 20.9 0.00 0.00 0.00 91 990.6
20260506023357 18 266 16.1 25.7 0.00 0.00 0.00 91 990.6
20260506023326 18 265 16.1 25.7 0.00 0.00 0.00 91 990.6
20260506022826 26 269 16.1 25.7 0.00 0.00 0.00 82 979.3
20260506022326 18 270 19.3 27.4 0.00 0.00 0.00 91 990.6
20260506021825 26 266 16.1 22.5 0.00 0.00 0.00 81 978.7
20260506021557 18 269 20.9 22.5 0.00 0.00 0.00 91 990.6
20260506021326 26 264 16.1 20.9 0.00 0.00 0.00 81 978.7
20260506020825 26 272 19.3 25.7 0.00 0.00 0.00 80 978.3
20260506020326 18 268 19.3 22.5 0.00 0.00 0.00 91 990.6
20260506015756 18 272 19.3 24.1 0.00 0.00 0.00 91 990.6
20260506015326 27 262 16.1 22.5 0.00 0.00 0.00 78 978.0
20260506014826 18 267 19.3 24.1 0.00 0.00 0.00 91 990.6
20260506014326 27 267 19.3 22.5 0.00 0.00 0.00 77 978.9
20260506013956 27 270 19.3 20.9 0.00 0.00 0.00 76 978.4
20260506013828 18 268 19.3 24.1 0.00 0.00 0.00 91 990.6
20260506013326 27 262 20.9 22.5 0.00 0.00 0.00 76 978.0
20260506012825 27 270 19.3 22.5 0.00 0.00 0.00 75 978.0
20260506012325 28 264 19.3 22.5 0.00 0.00 0.00 74 978.3
20260506012156 28 257 19.3 24.1 0.00 0.00 0.00 74 978.3
20260506011825 28 269 19.3 24.1 0.00 0.00 0.00 73 978.0
20260506011326 18 264 19.3 22.5 0.00 0.00 0.00 91 990.6
20260506010826 18 267 20.9 22.5 0.00 0.00 0.00 91 990.6